Regional Weather Roundup
Issued by NWS

Home | Current Version | Previous Version | Graphics & Text | Print | Product List | Glossary On
Versions: 1 2 3 4 5 6 7 8 9 10 11 12 13 14 15 16 17 18 19 20 21 22 23 24 25 26 27
000
ASUS45 KTFX 241210
RWRMT
MONTANA REGIONAL WEATHER ROUNDUP
NATIONAL WEATHER SERVICE GREAT FALLS MT
600 AM MDT TUE APR 24 2018

NOTE: "FAIR" INDICATES FEW OR NO CLOUDS BELOW 12000 FEET WITH NO
SIGNIFICANT WEATHER AND/OR OBSTRUCTIONS TO VISIBILITY.

MTZ001>007-043-241300-
WEST OF THE DIVIDE

CITY           SKY/WX    TMP DP  RH WIND       PRES   REMARKS
KALISPELL      FAIR      27  23  85 VRB3      30.47R
MISSOULA       FAIR      28  23  81 NW3       30.48S
BUTTE          FAIR      22  18  85 CALM      30.47R
MULLAN PASS    FAIR      31  20  63 SE12G22   30.39S WCI  22
ANACONDA         N/A     27  21  80 SW5       30.48R
DEER LODGE       N/A     21  21 100 W5        30.51R
HAMILTON         N/A     28  23  80 MISG      30.49R
RONAN            N/A     28  25  86 SE7       30.47S WCI  21
THOMPSON FALLS   N/A     27  24  88 CALM      30.47S
$$

MTZ008-052>055-241300-
SOUTHWEST MONTANA

CITY           SKY/WX    TMP DP  RH WIND       PRES   REMARKS
BOZEMAN        FAIR      28  25  88 S6        30.49S WCI  22
DILLON         FAIR      28  26  92 CALM      30.45S
ENNIS          CLEAR     25  21  86 CALM      30.48S
W YELLOWSTONE  FAIR      21  18  86 E5        30.41R
THREE FORKS      N/A     25  23  91 CALM      30.42S VSB 0
TWIN BRIDGES     N/A     28  20  72 N5        30.39R
$$

MTZ009-010-012-014-046-048-049-054-241300-
EAST SLOPES AND CENTRAL MONTANA

CITY           SKY/WX    TMP DP  RH WIND       PRES   REMARKS
CUT BANK       FAIR      27  19  72 CALM      30.41S
GREAT FALLS    FAIR      29  24  82 SW10      30.46S WCI  20
MALMSTROM AFB  FAIR      29  23  78 S3        30.47
HELENA         FAIR      30  26  85 SW3       30.50S
CHOTEAU          N/A     30  23  74 SW8       30.45F WCI  23
WHITE SULPHUR  FOG       19  19 100 S5        30.48R VSB 3/4
$$

MTZ011-013-016-021-045-047-050-051-241300-
NORTH CENTRAL MONTANA

CITY           SKY/WX    TMP DP  RH WIND       PRES   REMARKS
HAVRE          FAIR      30  25  81 W5        30.45S
LEWISTOWN      FAIR      25  23  92 SE7       30.47S WCI  17
N BAR RANCH    FAIR      28  23  80 W10       30.49R WCI  19
$$

MTZ017>020-022>027-061-062-241300-
NORTHEAST MONTANA

CITY           SKY/WX    TMP DP  RH WIND       PRES   REMARKS
GLASGOW        FAIR      30  23  75 CALM      30.46R
GLENDIVE       FAIR      31  27  85 CALM      30.48R
JORDAN           N/A     30  28  92 CALM      30.46R
MALTA          CLEAR     30  30 100 CALM      30.45S
SIDNEY         FAIR      27  23  85 CALM      30.49R
WOLF POINT     FAIR      24  19  81 CALM      30.48R
PLENTYWOOD       N/A     32  25  74 CALM      30.46S
POPLAR           N/A     25  21  86 N3        30.49R
$$

MTZ028>42-056>058-241300-
SOUTHCENTRAL AND SOUTHEAST MONTANA

CITY           SKY/WX    TMP DP  RH WIND       PRES   REMARKS
BAKER          MOCLDY    32  32 100 W8        30.47R WCI  25
BILLINGS       MOCLDY    33  33 100 SW10      30.49R WCI  25
LIVINGSTON     CLOUDY    30  28  92 W6        30.49R WCI  24
MILES CITY     FAIR      33  33 100 SW8       30.49R WCI  26
BIG TIMBER     PTCLDY    25  23  93 W10       30.50S WCI  15
EKALAKA          N/A     31  28  88 W2        30.39R
FORSYTH          N/A     34  34 100 W5        30.50R
$$

REGIONAL REPORTS...DAKOTAS

CITY           SKY/WX    TMP DP  RH WIND       PRES   REMARKS
WILLISTON      FAIR      21  18  88 CALM      30.47R
MINOT          FAIR      30  23  75 SW6       30.42R WCI  24
DICKINSON      FAIR      33  26  75 N7        30.41R WCI  27
BEACH          FAIR      30  30 100 CALM      30.49R
CROSBY         FAIR      27  25  93 SW7       30.46R WCI  19
TIOGA          FAIR      27  27 100 W6        30.46R WCI  20
WATFORD CITY   FAIR      25  25 100 SW5       30.46R
BISMARCK       CLOUDY    40  33  76 N12       30.38R
GRAND FORKS    MOCLDY    38  34  85 N9        30.35R WCI  31
FARGO          LGT RAIN  42  38  85 N17G25    30.32R
BUFFALO SD       N/A     35  50 100 NW15      30.36R WCI  25
RAPID CITY     LGT SNOW  33  31  92 N26G36    30.41R FOG     WCI  20
$$

REGIONAL REPORTS...WYOMING/IDAHO/WASHINGTON

CITY           SKY/WX    TMP DP  RH WIND       PRES   REMARKS
GILLETTE       CLOUDY    32  30  92 N14       30.46R WCI  22
SHERIDAN       CLOUDY    34  31  88 SE5       30.49F
BUFFALO WY     CLOUDY    32  27  81 NW6       30.48R WCI  26
CODY           CLOUDY    30  23  75 NE3       30.48R
YELLOWSTONE LA   N/A     19  13  77 CALM      30.42S
IDAHO FALLS    FAIR      32  27  81 N7        30.37R WCI  26
SALMON         FAIR      29  25  85 SE6       30.46S WCI  23
BOISE          MOCLDY    44  35  70 SE7       30.33R
SPOKANE        FAIR      42  29  59 E7        30.39S
$$

REGIONAL REPORTS...ALBERTA

CITY           SKY/WX    TMP DP  RH WIND       PRES   REMARKS
CALGARY        PTCLDY    36  19  51 SW3       30.29F
CARDSTON         N/A     37  16  41 SW10        N/A  WCI  30
EDMONTON       CLEAR     37  23  56 SW8       30.21S WCI  31
FORT MCMURRAY  CLEAR     43  25  49 SW10      30.05F
HIGH LEVEL     PTCLDY    36  25  64 S7        29.90F WCI  30
LETHBRIDGE     CLEAR     32  21  64 S9        30.34S WCI  24
LLOYDMINSTER   CLEAR     34  28  80 SW10      30.24F WCI  26
MEDICINE HAT   CLEAR     36  27  69 SW10      30.37S WCI  28
MILK RIVER       N/A     34  25  69 S6          N/A  WCI  29
ONEFOUR          N/A     28  25  86 E8          N/A  WCI  20
PEACE RIVER    PTCLDY    37  23  56 SW9       30.10F WCI  31
PINCHER CREEK  CLEAR     37  21  52 W14       30.35S WCI  29
WATERTON GATE    N/A     41  16  36 SW22G32     N/A
$$

REGIONAL REPORTS...SASKATCHEWAN

CITY           SKY/WX    TMP DP  RH WIND       PRES   REMARKS
CORONACH         N/A     21  18  86 CALM        N/A
CYPRESS HILLS    N/A     34  18  51 S3          N/A
ESTEVAN        CLEAR     27  23  86 W7        30.45R WCI  19
MOOSE JAW        N/A     32  23  69 SW9         N/A  WCI  24
PRINCE ALBERT  MOCLDY    27  25  93 E2        30.34S
REGINA         PTCLDY    28  21  74 SW5       30.42S
ROCKGLEN         N/A     28  21  74 W8          N/A  WCI  20
SASKATOON      PTCLDY    30  23  74 S8        30.36F WCI  23
SWIFT CURRENT  CLEAR     36  23  60 SW13      30.39S WCI  27
VAL MARIE        N/A     23  21  93 NE5         N/A
$$




USA.gov is the U.S. government's official web portal to all federal, state and local government web resources and services.